[[{"header":{"parameterUnit":"m.s-1","parameterCategory":2,"la1":30.2991,"la2":30.254,"lo1":-89.0895,"lo2":-89.0444,"dy":0.0017,"dx":0.0017,"nx":28,"ny":28,"refTime":"2023-09-19T09:00:00:Z","depth":"0","parameterNumber":2,"parameterNumberName":"U-component_of_CURRENTS"},"data":[0,0,0,0,0,0,0,0,0,0,0,0,0,0,0,0,0,0,0,0,0,0,0,0,0,0,0,0,0,0,0,0,0,0,0,0,0,0,0,0,0,0,0,0,0,0,0,0,0,0,0,0,0,0,0,0,0,0,-0.2911,-0.2911,0,-0.2931,-0.293,-0.293,-0.2902,-0.2901,-0.2901,-0.29,-0.2858,-0.2857,-0.2857,0,0,0,0,0,0,0,0,0,0,0,0,0,-0.2816,-0.2818,-0.2911,-0.2911,-0.2912,-0.2931,-0.293,-0.293,-0.2902,-0.2901,-0.29,-0.29,-0.2858,-0.2857,-0.2857,0,0,0,0,0,0,0,0,0,0,0,0,0,-0.2845,-0.2818,-0.2911,-0.2903,-0.2903,-0.2931,-0.293,-0.293,-0.2902,-0.2901,-0.29,-0.2899,-0.2858,-0.2857,-0.2857,-0.287,0,0,-0.2854,-0.2854,0,0,0,0,0,0,0,0,-0.2843,-0.2848,-0.2904,-0.2904,-0.2904,-0.2917,-0.2882,-0.2908,-0.2902,-0.2898,-0.29,-0.2899,-0.2875,-0.2873,-0.2873,-0.2868,-0.2866,-0.2854,-0.2853,-0.2853,-0.2853,0,0,0,0,0,0,0,-0.2841,-0.2847,-0.2914,-0.2905,-0.2905,-0.2888,-0.2891,-0.2887,-0.2887,-0.2898,-0.2897,-0.2907,-0.2874,-0.2874,-0.2872,-0.2865,-0.2854,-0.2853,-0.2853,-0.2852,-0.2886,-0.2887,0,0,0,0,0,0,-0.2851,-0.2845,-0.2914,-0.2915,-0.2876,-0.2891,-0.2894,-0.291,-0.2888,-0.2886,-0.2907,-0.2905,-0.2876,-0.2873,-0.287,-0.2905,-0.2853,-0.2852,-0.2852,-0.2884,-0.2886,-0.2888,0,0,0,0,0,0,-0.2849,-0.2857,-0.2913,-0.2883,-0.289,-0.2895,-0.2912,-0.2911,-0.2912,-0.2897,-0.2892,-0.291,-0.2875,-0.2872,-0.2876,-0.2902,-0.2852,-0.2851,-0.2883,-0.2885,-0.2887,-0.2961,0,0,0,0,0,0,-0.2846,-0.2856,-0.2866,-0.2885,-0.2892,-0.2944,-0.2913,-0.2912,-0.2921,-0.2918,-0.2898,-0.2893,-0.2874,-0.2877,-0.2875,-0.29,-0.285,-0.2881,-0.2884,-0.2886,-0.2957,-0.2965,-0.2973,0,0,0,0,0,-0.2843,-0.2865,-0.2866,-0.2874,-0.2907,-0.2945,-0.2948,-0.2944,-0.2922,-0.2937,-0.2919,-0.2893,-0.2892,-0.2878,-0.2875,-0.29,-0.288,-0.2883,-0.2886,-0.2953,-0.2964,-0.2973,0,0,0,0,0,0,-0.2827,-0.2865,-0.2867,-0.2898,-0.2927,-0.2942,-0.2953,-0.295,-0.2947,-0.2937,-0.2909,-0.2905,-0.292,-0.2901,-0.2886,-0.2919,-0.2883,-0.2886,-0.2935,-0.2945,-0.2953,-0.2954,-0.285,0,0,0,0,0,-0.2831,-0.2855,-0.2891,-0.2915,-0.2931,-0.2941,-0.2952,-0.2956,-0.296,-0.2957,-0.2943,-0.293,-0.2932,-0.293,-0.2927,-0.2943,-0.2929,-0.2958,-0.2966,-0.2973,-0.2973,-0.2982,-0.2991,-0.2898,-0.2898,-0.2898,0,0,-0.2828,-0.2855,-0.2866,-0.2913,-0.2927,-0.2966,-0.2944,-0.2972,-0.2999,-0.2953,-0.2971,-0.2957,-0.2943,-0.2963,-0.2968,-0.295,-0.2996,-0.2977,-0.2983,-0.2979,-0.2986,-0.2995,-0.3003,-0.29,-0.29,-0.2899,0,0,-0.2844,-0.2864,-0.2892,-0.2926,-0.2966,-0.2981,-0.2993,-0.3017,-0.3021,-0.3044,-0.3019,-0.3022,-0.302,-0.302,-0.3018,-0.3068,-0.3038,-0.3068,-0.3108,-0.3118,-0.3125,-0.3131,-0.3137,-0.3144,-0.3071,-0.3072,-0.3072,0,-0.2837,-0.2883,-0.2905,-0.295,-0.298,-0.2992,-0.3035,-0.3052,-0.3072,-0.3083,-0.3059,-0.3066,-0.3049,-0.308,-0.3094,-0.3086,-0.3082,-0.3073,-0.3128,-0.3134,-0.3139,-0.3143,-0.3149,-0.3075,-0.3075,-0.3075,-0.3074,0,-0.2879,-0.292,-0.2943,-0.3003,-0.304,-0.3079,-0.3119,-0.3143,-0.3143,-0.3155,-0.3179,-0.3158,-0.3158,-0.3161,-0.3139,-0.3175,-0.3158,-0.3137,-0.3103,-0.3153,-0.3154,-0.3159,-0.3081,-0.308,-0.3079,-0.3078,0,0,-0.2848,-0.295,-0.2957,-0.2996,-0.3072,-0.3105,-0.3163,-0.3217,-0.3248,-0.3254,-0.3289,-0.3285,-0.3261,-0.3257,-0.3234,-0.3239,-0.3272,-0.3205,-0.3203,-0.3209,-0.3293,-0.3278,-0.3281,-0.326,-0.3261,-0.3262,-0.3283,0,-0.287,-0.2955,-0.3006,-0.3083,-0.3129,-0.3179,-0.3234,-0.3283,-0.3311,-0.3349,-0.3337,-0.3351,-0.3304,-0.3298,-0.3301,-0.3279,-0.3287,-0.3268,-0.3244,-0.3243,-0.3223,-0.3287,-0.3221,-0.3234,-0.3287,-0.3288,-0.3288,0,-0.2885,-0.2947,-0.3024,-0.3128,-0.3152,-0.3195,-0.3281,-0.3333,-0.3399,-0.3417,-0.3434,-0.3428,-0.3436,-0.3384,-0.3375,-0.3365,-0.3334,-0.3314,-0.3314,-0.3274,-0.3237,-0.319,-0.324,-0.3219,-0.3295,-0.3295,-0.3294,0,-0.2838,-0.2954,-0.3011,-0.3049,-0.3168,-0.3201,-0.3254,-0.3337,-0.3387,-0.3447,-0.3481,-0.3494,-0.3489,-0.3467,-0.3423,-0.34,-0.3416,-0.3378,-0.334,-0.3338,-0.3264,-0.3254,-0.3286,-0.3376,-0.3376,-0.3376,-0.3376,0,-0.2838,-0.2881,-0.2986,-0.3019,-0.3086,-0.3171,-0.3237,-0.33,-0.339,-0.3449,-0.3489,-0.3527,-0.3507,-0.3517,-0.3466,-0.3427,-0.3449,-0.3361,-0.3349,-0.3289,-0.3282,-0.3243,-0.3241,-0.3377,-0.3377,-0.3377,-0.3376,0,-0.277,-0.2847,-0.2911,-0.3027,-0.3062,-0.3096,-0.3216,-0.3265,-0.3358,-0.3439,-0.3457,-0.3549,-0.3558,-0.3549,-0.3523,-0.3477,-0.34,-0.3421,-0.3355,-0.3335,-0.3267,-0.3272,-0.3246,-0.3161,-0.3383,-0.3383,-0.3383,0,-0.2741,-0.2766,-0.2882,-0.291,-0.2954,-0.3026,-0.308,-0.3213,-0.3276,-0.3442,-0.3473,-0.3543,-0.3576,-0.3566,-0.3506,-0.3453,-0.339,-0.3357,-0.3298,-0.3274,-0.327,-0.3232,-0.3158,-0.323,-0.3229,-0.3228,-0.3227,0,-0.2663,-0.2695,-0.2741,-0.2813,-0.2866,-0.2937,-0.3025,-0.3085,-0.3245,-0.3331,-0.3448,-0.3502,-0.3548,-0.3499,-0.3457,-0.3392,-0.3295,-0.3332,-0.3321,-0.3176,-0.3121,-0.3028,-0.321,-0.3217,-0.3218,-0.3219,-0.3219,-0.322,-0.2568,-0.2575,-0.2629,-0.2683,-0.2747,-0.2802,-0.2811,-0.2944,-0.3035,-0.3162,-0.3326,-0.3411,-0.3468,-0.3408,-0.336,-0.3261,-0.322,-0.316,-0.3175,-0.3144,-0.3043,-0.3212,-0.3197,-0.3198,-0.3199,-0.32,-0.32,0,-0.2442,-0.246,-0.2499,-0.2547,-0.2548,-0.2639,-0.2731,-0.2723,-0.278,-0.3,-0.3103,-0.3296,-0.3276,-0.3316,-0.3272,-0.3152,-0.3032,-0.3053,-0.298,-0.2912,-0.3076,-0.3051,-0.2987,-0.2987,-0.2987,-0.2987,-0.2987,-0.2987,-0.2367,-0.2344,-0.2371,-0.2318,-0.2346,-0.2299,-0.2311,-0.2351,-0.2463,-0.2632,-0.284,-0.3071,-0.3135,-0.3393,-0.3273,-0.312,-0.2987,-0.2899,-0.2866,-0.3003,-0.3014,-0.3024,-0.2999,-0.2926,-0.2926,-0.2616,-0.2615,-0.2613]},{"header":{"parameterUnit":"m.s-1","parameterCategory":2,"la1":30.2991,"la2":30.254,"lo1":-89.0895,"lo2":-89.0444,"dy":0.0017,"dx":0.0017,"nx":28,"ny":28,"refTime":"2023-09-19T09:00:00:Z","depth":"0","parameterNumber":3,"parameterNumberName":"V-component_of_CURRENTS"},"data":[0,0,0,0,0,0,0,0,0,0,0,0,0,0,0,0,0,0,0,0,0,0,0,0,0,0,0,0,0,0,0,0,0,0,0,0,0,0,0,0,0,0,0,0,0,0,0,0,0,0,0,0,0,0,0,0,0,0,-0.0236,-0.0235,0,-0.0124,-0.0122,-0.0121,-0.0053,-0.0053,-0.0053,-0.0053,0.0087,0.009,0.0094,0,0,0,0,0,0,0,0,0,0,0,0,0,-0.0328,-0.0327,-0.0236,-0.0234,-0.0233,-0.0124,-0.0122,-0.0121,-0.0053,-0.0053,-0.0053,-0.0052,0.0086,0.009,0.0094,0,0,0,0,0,0,0,0,0,0,0,0,0,-0.0259,-0.0327,-0.0236,-0.0187,-0.0181,-0.0124,-0.0122,-0.012,-0.0053,-0.0053,-0.0053,-0.0052,0.0084,0.0089,0.0095,0.0119,0,0,0.011,0.0113,0,0,0,0,0,0,0,0,-0.0263,-0.0255,-0.0195,-0.019,-0.0184,-0.0103,-0.0104,-0.0039,-0.0054,-0.0101,-0.0053,-0.0052,0.0025,0.0035,0.0056,0.0125,0.0131,0.0111,0.0114,0.0116,0.0118,0,0,0,0,0,0,0,-0.0268,-0.026,-0.0191,-0.0194,-0.0187,-0.0149,-0.0139,-0.0091,-0.0041,-0.0097,-0.0092,-0.0081,0.0029,0.0051,0.006,0.0133,0.0111,0.0115,0.0119,0.0121,0.0239,0.0239,0,0,0,0,0,0,-0.0287,-0.0264,-0.0194,-0.0187,-0.0224,-0.0148,-0.0137,-0.0129,-0.0041,-0.0028,-0.0081,-0.0078,0.0042,0.0054,0.0065,0.0104,0.0116,0.0121,0.0124,0.0239,0.0239,0.0239,0,0,0,0,0,0,-0.0289,-0.0282,-0.0199,-0.0224,-0.0211,-0.0147,-0.0138,-0.0127,-0.0104,-0.003,-0.0016,-0.0071,0.0043,0.0058,0.0109,0.011,0.0123,0.0128,0.0239,0.0239,0.0239,0.0179,0,0,0,0,0,0,-0.0292,-0.0283,-0.0287,-0.0225,-0.021,-0.0175,-0.0138,-0.0125,-0.0098,-0.0093,-0.0016,-0.0003,0.0044,0.0101,0.0114,0.0117,0.0132,0.0239,0.0239,0.0239,0.0181,0.0177,0.0174,0,0,0,0,0,-0.0296,-0.0307,-0.0288,-0.0279,-0.0216,-0.0175,-0.0164,-0.0117,-0.0098,-0.0094,-0.0037,-0.0005,0.0111,0.0105,0.0121,0.0126,0.0239,0.0239,0.0239,0.0183,0.0178,0.0174,0,0,0,0,0,0,-0.035,-0.0299,-0.0277,-0.0272,-0.0231,-0.0164,-0.0159,-0.0123,-0.0075,-0.007,0.0,0.0018,0.006,0.0101,0.0093,0.0159,0.0178,0.0181,0.013,0.0126,0.0122,0.0104,0.0137,0,0,0,0,0,-0.0365,-0.0358,-0.0301,-0.0297,-0.0282,-0.0221,-0.02,-0.0167,-0.0114,-0.0093,-0.0036,0.0021,0.0073,0.0104,0.0151,0.0192,0.0236,0.0203,0.02,0.0196,0.0192,0.0261,0.0263,0.024,0.024,0.024,0,0,-0.0385,-0.0356,-0.0352,-0.0308,-0.0274,-0.0259,-0.0208,-0.0183,-0.0162,-0.0085,-0.0045,0.0008,0.0079,0.0123,0.0145,0.0158,0.0226,0.0196,0.0193,0.0191,0.0261,0.0263,0.0265,0.024,0.024,0.024,0,0,-0.0431,-0.0399,-0.0412,-0.0379,-0.0334,-0.0293,-0.029,-0.0226,-0.0192,-0.0146,-0.0086,-0.003,0.0044,0.0102,0.014,0.0145,0.02,0.0154,0.013,0.0196,0.0199,0.0201,0.0258,0.0266,0.0158,0.0158,0.0158,0,-0.0461,-0.0464,-0.041,-0.0408,-0.0388,-0.0315,-0.032,-0.0271,-0.0196,-0.0165,-0.0147,-0.0021,0.0036,0.0107,0.0108,0.0137,0.0178,0.014,0.0191,0.0195,0.0199,0.0256,0.0266,0.0155,0.0155,0.0156,0.0156,0,-0.0507,-0.0509,-0.0514,-0.0487,-0.0456,-0.0448,-0.0375,-0.0339,-0.0291,-0.0233,-0.016,-0.0072,0.0004,0.0032,0.0073,0.0131,0.0151,0.0173,0.0199,0.0197,0.0258,0.027,0.0151,0.0152,0.0153,0.0154,0,0,-0.0578,-0.0556,-0.0557,-0.0564,-0.0497,-0.0482,-0.0439,-0.0381,-0.0354,-0.0268,-0.0222,-0.0121,-0.0066,-0.002,0.0049,0.0111,0.0174,0.0146,0.0151,0.0196,0.0315,0.038,0.0399,0.0204,0.0206,0.0207,0.0345,0,-0.0636,-0.0672,-0.0626,-0.0647,-0.0659,-0.0571,-0.0539,-0.0468,-0.0393,-0.0328,-0.0212,-0.0148,-0.0085,-0.0051,0.0025,0.0139,0.0202,0.0134,0.0315,0.032,0.0375,0.0414,0.0477,0.061,0.0357,0.0359,0.036,0,-0.0696,-0.0712,-0.0752,-0.0738,-0.0732,-0.0717,-0.065,-0.0612,-0.0487,-0.0428,-0.0325,-0.023,-0.0108,-0.0069,0.0134,0.0086,0.0188,0.0275,0.0283,0.0373,0.0408,0.0574,0.0641,0.0855,0.0378,0.0377,0.0376,0,-0.0785,-0.0799,-0.084,-0.083,-0.0794,-0.0782,-0.0751,-0.0645,-0.0611,-0.0487,-0.0442,-0.0281,-0.0199,-0.0044,0.0157,0.0141,0.0376,0.0379,0.0535,0.054,0.0645,0.0657,0.0938,0.0506,0.0506,0.0505,0.0505,0,-0.0865,-0.0896,-0.0888,-0.0906,-0.0948,-0.0874,-0.0874,-0.0814,-0.0713,-0.0673,-0.0505,-0.0426,-0.0192,-0.0017,0.0148,0.0396,0.0378,0.0543,0.0589,0.0626,0.0634,0.0865,0.0942,0.051,0.0509,0.0508,0.0507,0,-0.0957,-0.0951,-0.1001,-0.099,-0.0995,-0.1018,-0.0977,-0.0967,-0.0854,-0.0792,-0.0755,-0.0528,-0.0287,-0.0035,0.0233,0.0387,0.0748,0.0691,0.0718,0.0765,0.1093,0.1161,0.1457,0.1562,0.0881,0.0883,0.0886,0,-0.101,-0.1047,-0.1083,-0.1126,-0.1126,-0.1145,-0.1156,-0.1061,-0.1035,-0.0847,-0.0824,-0.0567,-0.0369,0.0079,0.041,0.0741,0.0878,0.0964,0.0947,0.1144,0.1254,0.1288,0.1356,0.1062,0.1066,0.1069,0.1071,0,-0.1104,-0.1111,-0.1155,-0.1255,-0.1292,-0.1326,-0.1321,-0.1321,-0.119,-0.1098,-0.0923,-0.074,-0.0254,0.0193,0.0645,0.0831,0.1135,0.103,0.1244,0.1436,0.1483,0.1595,0.0926,0.1096,0.1094,0.1092,0.109,0.1089,-0.1166,-0.1228,-0.1293,-0.1383,-0.1439,-0.1486,-0.1515,-0.147,-0.1419,-0.1251,-0.1028,-0.0697,0.0009,0.0681,0.0919,0.1451,0.1356,0.1576,0.1646,0.1664,0.1771,0.1152,0.1364,0.1363,0.1362,0.1361,0.136,0,-0.1243,-0.1314,-0.1417,-0.1514,-0.1598,-0.1588,-0.1613,-0.1609,-0.1557,-0.1308,-0.1083,-0.0278,0.0406,0.1038,0.1823,0.2073,0.2097,0.2174,0.2253,0.2293,0.1774,0.1789,0.2091,0.2091,0.2091,0.2091,0.2091,0.209,-0.1286,-0.1405,-0.1466,-0.163,-0.1694,-0.1777,-0.1793,-0.1753,-0.1597,-0.12,-0.0738,-0.0343,0.0639,0.1973,0.2667,0.2682,0.2877,0.2833,0.2928,0.2593,0.2542,0.2493,0.2529,0.2983,0.2984,0.3427,0.3431,0.3435]}],[{"header":{"parameterUnit":"m.s-1","parameterCategory":2,"la1":30.2991,"la2":30.254,"lo1":-89.0895,"lo2":-89.0444,"dy":0.0017,"dx":0.0017,"nx":28,"ny":28,"refTime":"2023-09-19T09:00:00:Z","depth":"2","parameterNumber":2,"parameterNumberName":"U-component_of_CURRENTS"},"data":[0,0,0,0,0,0,0,0,0,0,0,0,0,0,0,0,0,0,0,0,0,0,0,0,0,0,0,0,0,0,0,0,0,0,0,0,0,0,0,0,0,0,0,0,0,0,0,0,0,0,0,0,0,0,0,0,0,0,-0.2792,-0.2793,0,-0.2812,-0.2812,-0.2812,-0.2787,-0.2786,-0.2786,-0.2785,-0.2747,-0.2746,-0.2746,0,0,0,0,0,0,0,0,0,0,0,0,0,-0.27,-0.2702,-0.2792,-0.2793,-0.2793,-0.2812,-0.2812,-0.2812,-0.2787,-0.2786,-0.2785,-0.2785,-0.2747,-0.2746,-0.2746,0,0,0,0,0,0,0,0,0,0,0,0,0,-0.2728,-0.2702,-0.2792,-0.2786,-0.2786,-0.2812,-0.2812,-0.2812,-0.2787,-0.2786,-0.2785,-0.2785,-0.2747,-0.2746,-0.2745,-0.2756,0,0,-0.2743,-0.2743,0,0,0,0,0,0,0,0,-0.2726,-0.2731,-0.2786,-0.2787,-0.2787,-0.28,-0.2766,-0.2792,-0.2787,-0.2782,-0.2785,-0.2784,-0.2762,-0.276,-0.276,-0.2754,-0.2753,-0.2743,-0.2742,-0.2742,-0.2742,0,0,0,0,0,0,0,-0.2725,-0.273,-0.2796,-0.2787,-0.2788,-0.2772,-0.2775,-0.277,-0.2772,-0.2782,-0.2782,-0.2791,-0.2761,-0.2761,-0.2759,-0.2752,-0.2743,-0.2742,-0.2742,-0.2741,-0.2776,-0.2777,0,0,0,0,0,0,-0.2734,-0.2728,-0.2795,-0.2797,-0.2759,-0.2775,-0.2778,-0.2793,-0.2773,-0.2771,-0.2792,-0.279,-0.2763,-0.276,-0.2758,-0.2795,-0.2742,-0.2741,-0.2741,-0.2774,-0.2776,-0.2778,0,0,0,0,0,0,-0.2732,-0.274,-0.2794,-0.2766,-0.2772,-0.2778,-0.2795,-0.2794,-0.2797,-0.2782,-0.2777,-0.2797,-0.2762,-0.2759,-0.2765,-0.2792,-0.2741,-0.274,-0.2773,-0.2775,-0.2777,-0.2852,0,0,0,0,0,0,-0.2729,-0.2739,-0.2749,-0.2767,-0.2774,-0.2825,-0.2796,-0.2795,-0.2806,-0.2804,-0.2785,-0.278,-0.2762,-0.2766,-0.2764,-0.279,-0.274,-0.2771,-0.2774,-0.2776,-0.2848,-0.2856,-0.2864,0,0,0,0,0,-0.2726,-0.2748,-0.275,-0.2758,-0.279,-0.2827,-0.2829,-0.2826,-0.2807,-0.2822,-0.2805,-0.2781,-0.2781,-0.2767,-0.2764,-0.279,-0.277,-0.2773,-0.2776,-0.2844,-0.2855,-0.2864,0,0,0,0,0,0,-0.2712,-0.2748,-0.275,-0.2782,-0.2809,-0.2824,-0.2835,-0.2833,-0.2832,-0.2823,-0.2797,-0.2793,-0.2809,-0.2791,-0.2775,-0.2808,-0.2772,-0.2775,-0.2825,-0.2835,-0.2843,-0.2844,-0.2739,0,0,0,0,0,-0.2716,-0.274,-0.2775,-0.2799,-0.2814,-0.2824,-0.2836,-0.2841,-0.2845,-0.2843,-0.2831,-0.2819,-0.2821,-0.282,-0.2816,-0.2833,-0.282,-0.2849,-0.2857,-0.2864,-0.2864,-0.2873,-0.2881,-0.2788,-0.2788,-0.2788,0,0,-0.2714,-0.274,-0.2751,-0.2797,-0.2811,-0.2849,-0.2828,-0.2857,-0.2883,-0.2839,-0.2859,-0.2846,-0.2832,-0.2853,-0.2859,-0.284,-0.2887,-0.2868,-0.2874,-0.287,-0.2877,-0.2886,-0.2894,-0.279,-0.279,-0.2789,0,0,-0.2731,-0.2751,-0.2778,-0.2811,-0.2851,-0.2865,-0.2878,-0.2903,-0.2908,-0.2932,-0.2908,-0.2911,-0.2911,-0.291,-0.2908,-0.2959,-0.2929,-0.2959,-0.3,-0.3009,-0.3017,-0.3023,-0.303,-0.3036,-0.2963,-0.2963,-0.2963,0,-0.2726,-0.277,-0.2791,-0.2835,-0.2865,-0.2877,-0.2919,-0.2937,-0.2958,-0.2969,-0.2948,-0.2956,-0.294,-0.297,-0.2985,-0.2977,-0.2974,-0.2965,-0.302,-0.3026,-0.3031,-0.3036,-0.3042,-0.2967,-0.2967,-0.2966,-0.2966,0,-0.2767,-0.2807,-0.2829,-0.2888,-0.2924,-0.2963,-0.3002,-0.3028,-0.3029,-0.3042,-0.3067,-0.3047,-0.3049,-0.3052,-0.303,-0.3067,-0.3051,-0.3029,-0.2994,-0.3045,-0.3047,-0.3052,-0.2973,-0.2971,-0.297,-0.2969,0,0,-0.2739,-0.2837,-0.2844,-0.2882,-0.2957,-0.2988,-0.3047,-0.3099,-0.3132,-0.314,-0.3176,-0.3173,-0.3151,-0.3147,-0.3125,-0.3131,-0.3165,-0.3097,-0.3096,-0.3103,-0.3186,-0.317,-0.3173,-0.3153,-0.3154,-0.3155,-0.3177,0,-0.2761,-0.2844,-0.2892,-0.2968,-0.3013,-0.3061,-0.3116,-0.3165,-0.3194,-0.3232,-0.3222,-0.3237,-0.3193,-0.3189,-0.3193,-0.3171,-0.318,-0.3161,-0.3137,-0.3136,-0.3114,-0.3179,-0.2894,-0.2889,-0.3182,-0.3182,-0.3183,0,-0.2777,-0.2836,-0.2911,-0.3012,-0.3036,-0.3079,-0.3164,-0.3215,-0.3281,-0.3301,-0.3319,-0.3315,-0.3324,-0.3274,-0.3267,-0.3257,-0.3227,-0.3208,-0.3208,-0.3166,-0.3129,-0.2884,-0.2886,-0.319,-0.319,-0.3189,-0.3189,0,-0.2732,-0.2844,-0.29,-0.2936,-0.3052,-0.3086,-0.3138,-0.3221,-0.327,-0.3331,-0.3366,-0.3381,-0.3378,-0.3357,-0.3315,-0.3292,-0.3309,-0.3272,-0.3233,-0.3231,-0.297,-0.2944,-0.3271,-0.3271,-0.3271,-0.3271,-0.3271,0,-0.2732,-0.2775,-0.2877,-0.291,-0.2976,-0.3059,-0.3125,-0.3187,-0.3277,-0.3335,-0.3376,-0.3413,-0.3396,-0.3406,-0.3358,-0.332,-0.3342,-0.3255,-0.3242,-0.2991,-0.2968,-0.3206,-0.3199,-0.3272,-0.3272,-0.3271,-0.3271,0,-0.2668,-0.2743,-0.2805,-0.2918,-0.2953,-0.2988,-0.3106,-0.3154,-0.3247,-0.3326,-0.3345,-0.3436,-0.3446,-0.3439,-0.3413,-0.3369,-0.3336,-0.3314,-0.3028,-0.2984,-0.324,-0.3236,-0.3276,-0.3276,-0.3276,-0.3275,-0.3275,0,-0.2641,-0.2666,-0.2779,-0.2807,-0.285,-0.2921,-0.2975,-0.3106,-0.3166,-0.333,-0.3359,-0.3429,-0.3455,-0.3445,-0.3346,-0.3283,-0.3339,-0.3019,-0.2931,-0.326,-0.3244,-0.324,-0.3237,-0.2607,-0.2601,-0.2596,-0.2593,0,-0.2566,-0.2598,-0.2643,-0.2713,-0.2766,-0.2834,-0.292,-0.2978,-0.3134,-0.3213,-0.3325,-0.3372,-0.338,-0.3198,-0.314,-0.3054,-0.3011,-0.293,-0.3326,-0.2677,-0.2638,-0.262,-0.2636,-0.2552,-0.2556,-0.2559,-0.2561,-0.2563,-0.2475,-0.2481,-0.2534,-0.2587,-0.2649,-0.2701,-0.2708,-0.2815,-0.2895,-0.2954,-0.3143,-0.31,-0.3088,-0.2849,-0.2742,-0.2633,-0.2822,-0.2673,-0.2682,-0.2697,-0.2643,-0.2609,-0.2506,-0.251,-0.2513,-0.2516,-0.2518,0,-0.2344,-0.2369,-0.2407,-0.2453,-0.2442,-0.2542,-0.2629,-0.2572,-0.2591,-0.2691,-0.2737,-0.2485,-0.2411,-0.2404,-0.2181,-0.2183,-0.2098,-0.2096,-0.1954,-0.1997,-0.2034,-0.1942,-0.1621,-0.1619,-0.1616,-0.1614,0,0,-0.2269,-0.2242,-0.2266,-0.2208,-0.2242,-0.2172,-0.2181,-0.2132,-0.2137,-0.2051,-0.203,-0.2225,-0.2321,-0.1944,-0.188,-0.1719,-0.1828,-0.1636,-0.2349,-0.222,-0.2254,-0.2359,-0.2266,0,0,0,0,0]},{"header":{"parameterUnit":"m.s-1","parameterCategory":2,"la1":30.2991,"la2":30.254,"lo1":-89.0895,"lo2":-89.0444,"dy":0.0017,"dx":0.0017,"nx":28,"ny":28,"refTime":"2023-09-19T09:00:00:Z","depth":"2","parameterNumber":3,"parameterNumberName":"V-component_of_CURRENTS"},"data":[0,0,0,0,0,0,0,0,0,0,0,0,0,0,0,0,0,0,0,0,0,0,0,0,0,0,0,0,0,0,0,0,0,0,0,0,0,0,0,0,0,0,0,0,0,0,0,0,0,0,0,0,0,0,0,0,0,0,-0.0216,-0.0215,0,-0.0106,-0.0105,-0.0104,-0.0038,-0.0037,-0.0037,-0.0037,0.0101,0.0104,0.0107,0,0,0,0,0,0,0,0,0,0,0,0,0,-0.0305,-0.0304,-0.0216,-0.0214,-0.0213,-0.0107,-0.0105,-0.0103,-0.0038,-0.0037,-0.0037,-0.0037,0.0099,0.0104,0.0108,0,0,0,0,0,0,0,0,0,0,0,0,0,-0.0238,-0.0304,-0.0216,-0.0168,-0.0163,-0.0107,-0.0105,-0.0103,-0.0038,-0.0037,-0.0037,-0.0037,0.0098,0.0103,0.0108,0.0132,0,0,0.0124,0.0126,0,0,0,0,0,0,0,0,-0.0242,-0.0234,-0.0176,-0.0171,-0.0165,-0.0086,-0.0086,-0.0023,-0.0038,-0.0084,-0.0037,-0.0036,0.004,0.005,0.007,0.0139,0.0145,0.0124,0.0127,0.013,0.0131,0,0,0,0,0,0,0,-0.0246,-0.0238,-0.0172,-0.0175,-0.0168,-0.0131,-0.0121,-0.0074,-0.0024,-0.008,-0.0075,-0.0065,0.0043,0.0065,0.0074,0.0147,0.0124,0.0129,0.0132,0.0134,0.0251,0.0251,0,0,0,0,0,0,-0.0265,-0.0243,-0.0175,-0.0168,-0.0204,-0.013,-0.0119,-0.0111,-0.0025,-0.0012,-0.0065,-0.0062,0.0056,0.0068,0.0079,0.0118,0.013,0.0134,0.0137,0.0251,0.0251,0.0251,0,0,0,0,0,0,-0.0267,-0.026,-0.018,-0.0204,-0.0191,-0.0129,-0.012,-0.0109,-0.0087,-0.0014,-0.0,-0.0055,0.0057,0.0072,0.0123,0.0124,0.0137,0.0141,0.0251,0.0251,0.0251,0.0192,0,0,0,0,0,0,-0.0271,-0.0262,-0.0266,-0.0205,-0.019,-0.0156,-0.012,-0.0107,-0.0081,-0.0076,-0.0001,0.0012,0.0059,0.0114,0.0128,0.0131,0.0145,0.0251,0.0251,0.0251,0.0194,0.019,0.0187,0,0,0,0,0,-0.0274,-0.0284,-0.0267,-0.0258,-0.0197,-0.0157,-0.0146,-0.0099,-0.0082,-0.0077,-0.0022,0.001,0.0124,0.0119,0.0134,0.0139,0.0251,0.0251,0.0251,0.0196,0.0191,0.0187,0,0,0,0,0,0,-0.0327,-0.0277,-0.0256,-0.0251,-0.0211,-0.0146,-0.014,-0.0106,-0.0058,-0.0054,0.0015,0.0033,0.0074,0.0114,0.0107,0.0172,0.0191,0.0194,0.0144,0.014,0.0136,0.0119,0.015,0,0,0,0,0,-0.0341,-0.0335,-0.0279,-0.0276,-0.0261,-0.0202,-0.0181,-0.0148,-0.0097,-0.0076,-0.0021,0.0036,0.0087,0.0118,0.0164,0.0204,0.0248,0.0216,0.0212,0.0209,0.0205,0.0272,0.0275,0.0251,0.0251,0.0251,0,0,-0.0361,-0.0333,-0.033,-0.0287,-0.0254,-0.0238,-0.0188,-0.0164,-0.0143,-0.0069,-0.0029,0.0023,0.0093,0.0136,0.0158,0.0171,0.0238,0.0209,0.0206,0.0204,0.0273,0.0275,0.0277,0.0251,0.0251,0.0251,0,0,-0.0406,-0.0375,-0.0388,-0.0355,-0.0312,-0.0272,-0.0269,-0.0206,-0.0173,-0.0128,-0.007,-0.0014,0.0059,0.0116,0.0153,0.0158,0.0212,0.0168,0.0144,0.0209,0.0212,0.0215,0.027,0.0278,0.0171,0.0171,0.0171,0,-0.0436,-0.0439,-0.0386,-0.0384,-0.0365,-0.0293,-0.0298,-0.025,-0.0177,-0.0147,-0.0129,-0.0005,0.0051,0.0121,0.0122,0.0151,0.0191,0.0154,0.0204,0.0208,0.0212,0.0268,0.0278,0.0169,0.0169,0.0169,0.0169,0,-0.048,-0.0483,-0.0487,-0.0461,-0.043,-0.0423,-0.0351,-0.0317,-0.0269,-0.0213,-0.0141,-0.0054,0.002,0.0047,0.0088,0.0145,0.0165,0.0187,0.0213,0.0211,0.027,0.0281,0.0164,0.0165,0.0166,0.0167,0,0,-0.0551,-0.0529,-0.053,-0.0536,-0.047,-0.0456,-0.0414,-0.0357,-0.0331,-0.0247,-0.0201,-0.0102,-0.0048,-0.0003,0.0065,0.0126,0.0189,0.016,0.0165,0.0209,0.0327,0.0387,0.0406,0.0218,0.022,0.0221,0.0356,0,-0.0607,-0.0642,-0.0597,-0.0617,-0.0629,-0.0543,-0.0512,-0.0442,-0.0369,-0.0305,-0.0191,-0.0128,-0.0066,-0.0033,0.0042,0.0154,0.0216,0.015,0.0327,0.0332,0.0382,0.042,0.0344,0.0462,0.0367,0.0369,0.0371,0,-0.0666,-0.0682,-0.0721,-0.0706,-0.0701,-0.0687,-0.0621,-0.0584,-0.0461,-0.0404,-0.0302,-0.0209,-0.0089,-0.0051,0.0149,0.0102,0.0202,0.0288,0.0296,0.0381,0.0414,0.0451,0.0486,0.039,0.0388,0.0387,0.0386,0,-0.0754,-0.0767,-0.0807,-0.0798,-0.0762,-0.0751,-0.0721,-0.0616,-0.0584,-0.0461,-0.0418,-0.0259,-0.0179,-0.0026,0.0171,0.0155,0.0386,0.039,0.054,0.0545,0.053,0.0531,0.0515,0.0515,0.0515,0.0514,0.0514,0,-0.0833,-0.0863,-0.0855,-0.0873,-0.0914,-0.0841,-0.0842,-0.0783,-0.0684,-0.0646,-0.048,-0.0404,-0.0172,-0.0001,0.0161,0.0403,0.0388,0.0548,0.0592,0.0508,0.0506,0.048,0.0474,0.0519,0.0518,0.0517,0.0516,0,-0.0923,-0.0917,-0.0967,-0.0956,-0.0961,-0.0984,-0.0944,-0.0934,-0.0824,-0.0764,-0.0729,-0.0506,-0.027,-0.0021,0.0243,0.0394,0.061,0.0691,0.0578,0.0608,0.0721,0.071,0.0867,0.0871,0.0874,0.0876,0.0878,0,-0.0975,-0.1012,-0.1048,-0.109,-0.1091,-0.111,-0.1121,-0.1028,-0.1003,-0.082,-0.0798,-0.0547,-0.0355,0.0084,0.0382,0.07,0.0697,0.0809,0.0774,0.0734,0.0761,0.0746,0.0732,0.0724,0.0725,0.0726,0.0726,0,-0.1069,-0.1077,-0.1119,-0.1219,-0.1255,-0.1289,-0.1285,-0.1285,-0.1157,-0.1068,-0.0899,-0.0722,-0.0272,0.0086,0.0519,0.0682,0.0757,0.0832,0.0833,0.0653,0.0612,0.0635,0.0623,0.0731,0.073,0.073,0.073,0.0729,-0.1131,-0.1192,-0.1256,-0.1345,-0.1401,-0.1448,-0.1476,-0.1427,-0.1378,-0.1211,-0.1011,-0.0713,-0.0317,0.0285,0.059,0.0855,0.0853,0.0901,0.0894,0.0887,0.0852,0.082,0.097,0.0971,0.0972,0.0972,0.0973,0,-0.1203,-0.1277,-0.1379,-0.1474,-0.1551,-0.1549,-0.1574,-0.155,-0.1492,-0.1282,-0.1071,-0.0631,-0.0184,0.0222,0.0652,0.093,0.0874,0.0957,0.083,0.0824,0.0818,0.0775,0.0876,0.0876,0.0877,0.0878,0,0,-0.1245,-0.136,-0.1419,-0.1577,-0.1645,-0.1714,-0.1731,-0.1659,-0.1518,-0.1311,-0.1074,-0.0708,-0.0191,0.0105,0.0454,0.0675,0.0661,0.0675,0.0719,0.0519,0.051,0.0753,0.0676,0,0,0,0,0]}],[{"header":{"parameterUnit":"m.s-1","parameterCategory":2,"la1":30.2991,"la2":30.254,"lo1":-89.0895,"lo2":-89.0444,"dy":0.0017,"dx":0.0017,"nx":28,"ny":28,"refTime":"2023-09-19T09:00:00:Z","depth":"4","parameterNumber":2,"parameterNumberName":"U-component_of_CURRENTS"},"data":[0,0,0,0,0,0,0,0,0,0,0,0,0,0,0,0,0,0,0,0,0,0,0,0,0,0,0,0,0,0,0,0,0,0,0,0,0,0,0,0,0,0,0,0,0,0,0,0,0,0,0,0,0,0,0,0,0,0,-0.1824,-0.1825,0,-0.1891,-0.1892,-0.1892,-0.1938,-0.1938,-0.1939,-0.1939,-0.1991,-0.1992,-0.1993,0,0,0,0,0,0,0,0,0,0,0,0,0,-0.1711,-0.1712,-0.1824,-0.1825,-0.1826,-0.1891,-0.1892,-0.1892,-0.1937,-0.1938,-0.1939,-0.194,-0.1991,-0.1992,-0.1993,0,0,0,0,0,0,0,0,0,0,0,0,0,-0.1764,-0.1713,-0.1823,-0.1858,-0.1862,-0.1891,-0.1892,-0.1892,-0.1937,-0.1938,-0.1939,-0.194,-0.199,-0.1992,-0.1993,-0.1984,0,0,-0.1997,-0.1997,0,0,0,0,0,0,0,0,-0.1761,-0.1768,-0.1852,-0.1856,-0.186,-0.1909,-0.1871,-0.1923,-0.1937,-0.1906,-0.1939,-0.194,-0.1963,-0.1967,-0.1974,-0.1986,-0.1989,-0.1997,-0.1998,-0.1998,-0.1999,0,0,0,0,0,0,0,-0.1758,-0.1765,-0.1848,-0.1853,-0.1858,-0.1862,-0.1871,-0.1881,-0.1927,-0.1909,-0.1913,-0.1924,-0.1965,-0.1973,-0.1976,-0.1989,-0.1997,-0.1998,-0.1999,-0.1999,-0.21,-0.2102,0,0,0,0,0,0,-0.1755,-0.1762,-0.1846,-0.185,-0.1815,-0.1864,-0.1873,-0.189,-0.1927,-0.1934,-0.1924,-0.1926,-0.197,-0.1974,-0.1978,-0.2069,-0.1998,-0.2,-0.2,-0.2098,-0.21,-0.2102,0,0,0,0,0,0,-0.1753,-0.1762,-0.1843,-0.1809,-0.182,-0.1866,-0.1884,-0.1891,-0.1936,-0.1939,-0.1946,-0.1965,-0.1971,-0.1976,-0.2024,-0.2068,-0.2,-0.2001,-0.2096,-0.2099,-0.2101,-0.2189,0,0,0,0,0,0,-0.1749,-0.1761,-0.1787,-0.1809,-0.1822,-0.189,-0.1884,-0.1892,-0.1941,-0.1946,-0.1976,-0.198,-0.1972,-0.2023,-0.2026,-0.2068,-0.2002,-0.2093,-0.2097,-0.2101,-0.2183,-0.2194,-0.2203,0,0,0,0,0,-0.1745,-0.1773,-0.1788,-0.1799,-0.1852,-0.1892,-0.1899,-0.1931,-0.1942,-0.1972,-0.1994,-0.1981,-0.2047,-0.2025,-0.2028,-0.2073,-0.2092,-0.2096,-0.21,-0.2179,-0.2192,-0.2203,0,0,0,0,0,0,-0.1739,-0.1781,-0.1798,-0.1839,-0.1878,-0.1901,-0.1934,-0.1952,-0.1993,-0.2006,-0.2004,-0.201,-0.2068,-0.2058,-0.2034,-0.2112,-0.2068,-0.2073,-0.2126,-0.2138,-0.2148,-0.2146,-0.2003,0,0,0,0,0,-0.1748,-0.1784,-0.1821,-0.1859,-0.188,-0.1913,-0.1939,-0.1964,-0.1994,-0.2015,-0.2037,-0.2058,-0.2081,-0.2102,-0.2117,-0.216,-0.2141,-0.219,-0.22,-0.2209,-0.221,-0.2221,-0.2232,-0.2117,-0.2116,-0.2116,0,0,-0.1756,-0.1785,-0.1806,-0.1861,-0.1891,-0.1935,-0.1932,-0.1985,-0.203,-0.2012,-0.2086,-0.2096,-0.21,-0.2151,-0.2176,-0.2154,-0.2235,-0.2214,-0.2222,-0.2218,-0.2227,-0.2238,-0.2248,-0.2119,-0.2119,-0.2118,0,0,-0.1779,-0.1818,-0.1852,-0.1891,-0.195,-0.1973,-0.1998,-0.2047,-0.2082,-0.2144,-0.2143,-0.2181,-0.2222,-0.2233,-0.224,-0.2314,-0.2286,-0.2327,-0.2379,-0.2391,-0.2401,-0.2408,-0.2408,-0.2415,-0.2334,-0.2334,-0.2334,0,-0.1789,-0.1838,-0.187,-0.1916,-0.1956,-0.1995,-0.2045,-0.2085,-0.2148,-0.218,-0.2183,-0.2251,-0.2258,-0.2308,-0.2337,-0.2337,-0.2334,-0.2334,-0.2404,-0.2411,-0.2417,-0.2414,-0.2421,-0.2338,-0.2338,-0.2337,-0.2337,0,-0.1827,-0.1884,-0.191,-0.1981,-0.2029,-0.2081,-0.2138,-0.2196,-0.224,-0.2273,-0.2347,-0.2356,-0.2392,-0.2407,-0.2397,-0.2454,-0.2435,-0.2413,-0.2371,-0.2434,-0.2427,-0.2433,-0.2345,-0.2344,-0.2342,-0.2341,0,0,-0.1801,-0.1915,-0.1928,-0.1977,-0.2072,-0.2109,-0.2198,-0.2275,-0.2334,-0.2392,-0.2458,-0.2499,-0.2504,-0.2512,-0.2508,-0.2523,-0.257,-0.2497,-0.2496,-0.2492,-0.2596,-0.2443,-0.2434,-0.2566,-0.2567,-0.2568,-0.2575,0,-0.1824,-0.1914,-0.1972,-0.2069,-0.2119,-0.2194,-0.227,-0.235,-0.2413,-0.2488,-0.2512,-0.2566,-0.2544,-0.2567,-0.2584,-0.2574,-0.2588,-0.257,-0.2538,-0.2537,-0.2389,-0.2436,-0.2572,-0.2578,-0.2579,-0.258,-0.2581,0,-0.1831,-0.1897,-0.1993,-0.2116,-0.2147,-0.2216,-0.234,-0.2411,-0.2518,-0.2566,-0.2623,-0.2645,-0.2687,-0.2653,-0.2669,-0.2662,-0.264,-0.2623,-0.2622,-0.2449,-0.2393,-0.25,-0.259,-0.2589,-0.2588,-0.2588,-0.2587,0,-0.1775,-0.1907,-0.1985,-0.2029,-0.2173,-0.224,-0.2318,-0.2436,-0.2502,-0.2611,-0.2662,-0.2716,-0.2741,-0.2735,-0.2709,-0.2699,-0.2711,-0.2685,-0.2526,-0.2515,-0.2612,-0.2603,-0.2692,-0.2692,-0.2692,-0.2692,-0.2691,0,-0.1755,-0.1821,-0.1972,-0.2014,-0.2114,-0.2221,-0.2328,-0.2416,-0.2537,-0.2599,-0.2688,-0.2723,-0.2764,-0.2777,-0.2742,-0.2644,-0.2735,-0.2535,-0.2506,-0.265,-0.2645,-0.2615,-0.2606,-0.2692,-0.2692,-0.2692,-0.2692,0,-0.167,-0.1775,-0.187,-0.2034,-0.209,-0.2156,-0.2323,-0.2385,-0.2515,-0.2598,-0.2633,-0.2743,-0.2742,-0.2761,-0.275,-0.266,-0.2598,-0.2542,-0.2702,-0.2682,-0.2388,-0.2384,-0.2358,-0.2353,-0.2348,-0.2344,-0.2341,0,-0.1632,-0.1674,-0.1854,-0.1906,-0.1986,-0.2104,-0.2179,-0.2348,-0.2403,-0.2575,-0.2588,-0.2665,-0.2704,-0.2566,-0.2605,-0.2533,-0.2496,-0.2459,-0.2412,-0.2379,-0.2355,-0.2358,-0.236,-0.2334,-0.2333,-0.2332,-0.233,0,-0.1544,-0.1621,-0.1692,-0.1804,-0.19,-0.1989,-0.2105,-0.2138,-0.2308,-0.246,-0.2471,-0.2473,-0.2475,-0.2451,-0.2417,-0.2364,-0.248,-0.241,-0.2419,-0.2375,-0.235,-0.233,-0.2338,-0.2315,-0.2317,-0.2318,-0.2319,0,-0.1466,-0.149,-0.1589,-0.1666,-0.1775,-0.1818,-0.1915,-0.198,-0.2065,-0.2263,-0.226,-0.2342,-0.245,-0.2363,-0.2332,-0.227,-0.2223,-0.2144,-0.2166,-0.2184,-0.212,-0.2063,-0.1913,0,0,0,0,0,-0.1376,-0.1379,-0.144,-0.1515,-0.1611,-0.1672,-0.1831,-0.1929,-0.211,-0.2061,-0.2156,-0.2147,-0.2118,-0.2167,-0.2058,-0.2233,-0.2221,-0.2098,-0.214,-0.2228,-0.2246,-0.2186,0,0,0,0,0,0,-0.1313,-0.1359,-0.138,-0.1356,-0.1369,-0.1462,-0.1553,-0.1688,-0.1677,-0.1866,-0.1856,-0.2003,-0.1994,-0.2123,-0.2001,-0.2014,-0.1996,-0.2164,-0.2158,-0.2217,-0.2234,-0.2248,-0.2193,0,0,0,0,0]},{"header":{"parameterUnit":"m.s-1","parameterCategory":2,"la1":30.2991,"la2":30.254,"lo1":-89.0895,"lo2":-89.0444,"dy":0.0017,"dx":0.0017,"nx":28,"ny":28,"refTime":"2023-09-19T09:00:00:Z","depth":"4","parameterNumber":3,"parameterNumberName":"V-component_of_CURRENTS"},"data":[0,0,0,0,0,0,0,0,0,0,0,0,0,0,0,0,0,0,0,0,0,0,0,0,0,0,0,0,0,0,0,0,0,0,0,0,0,0,0,0,0,0,0,0,0,0,0,0,0,0,0,0,0,0,0,0,0,0,-0.015,-0.0149,0,-0.0078,-0.0077,-0.0076,-0.003,-0.003,-0.003,-0.003,0.008,0.0082,0.0085,0,0,0,0,0,0,0,0,0,0,0,0,0,-0.0198,-0.0198,-0.015,-0.0149,-0.0148,-0.0078,-0.0077,-0.0076,-0.003,-0.003,-0.003,-0.003,0.0079,0.0082,0.0085,0,0,0,0,0,0,0,0,0,0,0,0,0,-0.0156,-0.0197,-0.015,-0.0118,-0.0114,-0.0078,-0.0077,-0.0075,-0.003,-0.003,-0.003,-0.003,0.0078,0.0082,0.0086,0.0107,0,0,0.0099,0.01,0,0,0,0,0,0,0,0,-0.0158,-0.0154,-0.0123,-0.012,-0.0116,-0.0064,-0.0054,-0.0013,-0.0031,-0.0061,-0.003,-0.003,0.0034,0.0042,0.0056,0.0112,0.0117,0.0099,0.0101,0.0103,0.0104,0,0,0,0,0,0,0,-0.0161,-0.0156,-0.012,-0.0123,-0.0118,-0.009,-0.0084,-0.0046,-0.0014,-0.0058,-0.0055,-0.0049,0.0037,0.0052,0.0059,0.0118,0.0099,0.0102,0.0105,0.0107,0.0202,0.0202,0,0,0,0,0,0,-0.0175,-0.0159,-0.0122,-0.0118,-0.0138,-0.009,-0.0083,-0.008,-0.0015,-0.0006,-0.0049,-0.0047,0.0045,0.0054,0.0063,0.0096,0.0103,0.0107,0.0109,0.0202,0.0202,0.0202,0,0,0,0,0,0,-0.0177,-0.0173,-0.0125,-0.0138,-0.013,-0.009,-0.0086,-0.0079,-0.0064,-0.0009,0.0001,-0.0043,0.0045,0.0057,0.0097,0.01,0.0109,0.0113,0.0202,0.0202,0.0202,0.0158,0,0,0,0,0,0,-0.0178,-0.0174,-0.0179,-0.0139,-0.013,-0.0111,-0.0086,-0.0077,-0.0061,-0.0057,0.0,0.0011,0.0046,0.0091,0.0101,0.0106,0.0116,0.0202,0.0202,0.0202,0.016,0.0157,0.0155,0,0,0,0,0,-0.018,-0.0189,-0.018,-0.0175,-0.0137,-0.0112,-0.0105,-0.0074,-0.0061,-0.0059,-0.0016,0.0009,0.0099,0.0094,0.0107,0.0113,0.0202,0.0202,0.0202,0.0161,0.0158,0.0155,0,0,0,0,0,0,-0.0213,-0.0185,-0.0173,-0.0173,-0.0148,-0.0105,-0.0103,-0.0079,-0.0043,-0.004,0.0013,0.0027,0.006,0.0092,0.0086,0.0139,0.0153,0.0155,0.0118,0.0115,0.0112,0.0098,0.0119,0,0,0,0,0,-0.0224,-0.0224,-0.0189,-0.019,-0.0182,-0.0143,-0.013,-0.0108,-0.0072,-0.0056,-0.0014,0.003,0.0071,0.0096,0.0132,0.0166,0.02,0.0176,0.0173,0.0171,0.0167,0.0225,0.0227,0.0202,0.0202,0.0202,0,0,-0.0238,-0.0222,-0.0222,-0.0198,-0.0177,-0.0169,-0.0134,-0.012,-0.0107,-0.0049,-0.0021,0.0021,0.0076,0.011,0.0129,0.0139,0.0195,0.0171,0.0169,0.0166,0.0225,0.0228,0.023,0.0202,0.0202,0.0202,0,0,-0.0269,-0.0252,-0.0265,-0.0245,-0.0219,-0.0193,-0.0192,-0.0151,-0.0128,-0.0096,-0.005,-0.0006,0.005,0.0097,0.0126,0.0132,0.0175,0.0139,0.0123,0.0179,0.0181,0.0184,0.0225,0.0232,0.0144,0.0144,0.0144,0,-0.0289,-0.0296,-0.0264,-0.0265,-0.0256,-0.0209,-0.0215,-0.0182,-0.0131,-0.011,-0.0097,-0.0,0.0045,0.0103,0.0104,0.0127,0.0158,0.013,0.0175,0.0179,0.0182,0.0224,0.0232,0.0142,0.0142,0.0142,0.0142,0,-0.032,-0.0328,-0.0333,-0.0321,-0.0304,-0.0302,-0.0255,-0.0232,-0.02,-0.0161,-0.0105,-0.0035,0.0022,0.0046,0.0078,0.0128,0.0141,0.016,0.0181,0.0182,0.0226,0.0235,0.0139,0.0139,0.014,0.014,0,0,-0.0363,-0.036,-0.0363,-0.0373,-0.0334,-0.0328,-0.0301,-0.0265,-0.0249,-0.0185,-0.0154,-0.0071,-0.0029,0.0007,0.0062,0.0116,0.0168,0.0143,0.0147,0.018,0.0282,0.0261,0.027,0.0196,0.0197,0.0199,0.0301,0,-0.0403,-0.0435,-0.0411,-0.0434,-0.0447,-0.0393,-0.0377,-0.033,-0.028,-0.0235,-0.0144,-0.0097,-0.0043,-0.0018,0.0047,0.0138,0.0191,0.0138,0.028,0.0284,0.0263,0.0279,0.0203,0.0308,0.031,0.0311,0.0313,0,-0.044,-0.046,-0.0498,-0.0503,-0.0503,-0.0501,-0.0467,-0.0444,-0.0358,-0.0317,-0.0237,-0.0165,-0.0065,-0.0032,0.0135,0.0098,0.018,0.0251,0.0257,0.0259,0.028,0.031,0.033,0.0328,0.0327,0.0326,0.0325,0,-0.0494,-0.0518,-0.0558,-0.0556,-0.0549,-0.0551,-0.054,-0.0473,-0.0455,-0.0367,-0.0339,-0.0207,-0.0143,-0.0014,0.0145,0.0138,0.0321,0.0333,0.0394,0.0393,0.04,0.0396,0.0439,0.0438,0.0438,0.0438,0.0438,0,-0.0539,-0.0572,-0.0594,-0.0612,-0.066,-0.062,-0.0639,-0.0601,-0.054,-0.0518,-0.039,-0.0334,-0.0137,-0.0,0.0133,0.0296,0.032,0.0392,0.0421,0.0378,0.0371,0.0407,0.0401,0.0442,0.0441,0.044,0.044,0,-0.0586,-0.06,-0.0652,-0.0674,-0.069,-0.072,-0.0724,-0.0725,-0.0656,-0.062,-0.0595,-0.0422,-0.0245,-0.0044,0.0175,0.0273,0.0432,0.0481,0.0417,0.0441,0.0466,0.0457,0.055,0.055,0.055,0.055,0.055,0,-0.0611,-0.0645,-0.0713,-0.076,-0.0776,-0.0817,-0.0845,-0.0797,-0.0785,-0.067,-0.0652,-0.0473,-0.0343,-0.0041,0.0163,0.0421,0.0452,0.0525,0.0497,0.046,0.0479,0.047,0.0462,0.0551,0.0551,0.0551,0.0551,0,-0.0657,-0.0685,-0.0729,-0.0835,-0.0889,-0.0942,-0.0965,-0.0964,-0.0892,-0.0834,-0.0692,-0.051,-0.0307,-0.0058,0.0151,0.0333,0.0474,0.0527,0.0527,0.0502,0.0462,0.0479,0.0471,0.0551,0.0551,0.0551,0.0551,0,-0.0687,-0.0737,-0.0808,-0.0893,-0.0977,-0.103,-0.1039,-0.1004,-0.0975,-0.0831,-0.0787,-0.0541,-0.0386,-0.0103,0.009,0.0271,0.0303,0.0341,0.0352,0.0354,0.0267,0.0185,0.0217,0,0,0,0,0,-0.0707,-0.0768,-0.086,-0.0946,-0.1031,-0.1075,-0.1101,-0.1084,-0.1016,-0.0933,-0.0852,-0.0657,-0.0341,-0.0188,-0.0014,0.0072,0.0319,0.0278,0.0363,0.0554,0.0554,0.0483,0,0,0,0,0,0,-0.0723,-0.0811,-0.0861,-0.0972,-0.1039,-0.1118,-0.1139,-0.1097,-0.1031,-0.0937,-0.0765,-0.064,-0.033,-0.0443,-0.0017,0.0042,0.0113,0.0442,0.0445,0.0555,0.0554,0.0554,0.0481,0,0,0,0,0]}]]